Tracking 29528 objects as of 14-Sep-2024
HD Live streaming from Space Station
objects crossing your sky now

FENGYUN 1C DEB

Track FENGYUN 1C DEB now!
10-day predictions


NORAD ID: 37929
Int'l Code: 1999-025EPE
Perigee: 403.5 km
Apogee: 460.1 km
Inclination: 98.9 °
Period: 93.1 minutes
Semi major axis: 6802 km
RCS: 0.0114 m2 (small)
Launch date: May 10, 1999
Source: People's Republic of China (PRC)
Launch site: Taiyaun Space Center, China (TSC)

Note: This is SATELLITE DEBRIS
Your satellite tracking list
Your tracking list is empty




NASA's NSSDC Master Catalog

Two Line Element Set (TLE):
1 37929U 99025EPE 24233.47669044  .00459096  00000-0  82498-2 0  9995
2 37929  98.9457 124.8165 0041600 191.5835 168.4457 15.47300459751741
Source of the keplerian elements: AFSPC